CAPE
137 35 116 0 13 1 19 41 36 46 230 557 558 522 317 235 940 882 407 477 70 8 72 1 22 0 29 48 278 909 1370 2877 2323 2203 2193 1763 1080 1569 2168 2248 2281 2041 2557 2313
64 51 86 77 79 10 0 24 46 0 26 217 224 695 574 333 627 771 566 611 253 220 24 16 21 0 0 27 396 1342 2071 2538 2309 2529 2472 1850 2627 2307 1495 2984 2583 2726 2899 3075
2 45 48 70 104 6 3 0 0 6 50 35 0 682 805 593 316 554 738 600 552 485 226 265 568 107 0 2 368 1018 1983 2741 2652 1464 3004 2934 3150 2758 2238 3100 2987 3155 3423 3165
0 39 66 73 13 16 1 0 0 3 0 302 83 608 70 28 553 306 671 731 577 340 277 514 636 156 84 0 155 749 1329 2526 2458 2898 2374 3039 2747 1201 1869 2480 3383 2835 3013 2670
110 146 11 17 24 0 0 0 0 0 7 192 83 106 0 2 286 494 274 500 647 618 302 428 458 197 425 18 66 415 1145 2191 2839 2900 3191 3106 2875 2634 2453 2992 3451 3980 3593 3313
16 26 1 1 9 0 0 0 1 9 4 151 71 6 0 1 292 881 479 404 485 728 632 789 678 421 624 454 348 295 1002 2581 3055 3042 3140 3482 3163 3095 2927 3142 2869 3220 3067 2987
58 43 20 5 0 0 0 2 70 104 66 65 14 3 65 0 418 1266 660 571 468 664 1028 684 861 726 848 689 501 646 1271 2309 2895 3005 3040 2976 3194 3388 3292 3143 2105 2555 2932 2728
29 82 37 9 0 2 14 6 17 100 79 101 59 121 343 169 456 1176 969 658 564 541 620 769 1175 1287 1321 1193 822 940 1911 2403 2710 2846 3024 3417 3375 2665 2441 3060 2204 2542 2674 3403
0 0 0 0 0 0 0 13 2 0 28 107 101 215 312 161 694 909 942 755 519 501 614 696 725 1386 1409 1332 1076 1879 2131 3020 2941 2640 3104 3182 3081 2926 2476 3273 2907 2391 2877 1840
0 4 8 6 0 0 0 0 1 42 108 136 337 142 11 1 472 718 850 816 665 480 535 671 839 1149 1264 1225 1508 1836 1985 2054 2375 2094 2473 2414 2643 2848 2835 3133 4029 3672 3775 3597
15 3 0 36 0 0 0 0 1 26 3 62 20 12 141 256 390 694 690 721 872 627 457 561 736 1067 1348 1045 1260 1629 2032 1860 1926 1779 1777 2105 2264 2389 2866 2534 3142 3503 3309 3683
0 13 41 73 9 14 36 13 33 33 63 70 33 61 21 206 282 150 684 859 856 875 584 575 749 915 1048 1240 1214 1161 1320 1590 1671 1450 2148 2077 2431 2793 2184 2585 2615 3131 3127 4059
0 2 0 15 14 14 22 0 0 1 86 116 133 11 15 21 245 322 469 818 1684 1415 1199 771 861 1161 1450 1329 1573 1230 1588 1357 1058 1274 1439 1613 1814 1939 1830 2580 2799 2645 3626 3516
4 0 0 2 51 12 16 0 1 24 96 38 79 98 46 347 158 256 316 656 1660 1725 1449 965 1168 1855 1833 1811 2058 2824 1436 1449 1484 1576 1906 2332 2358 2344 1968 2376 3459 3231 3790 3728
0 18 25 8 0 0 0 0 14 17 31 81 94 1 326 122 195 291 273 810 1335 1750 1245 676 1119 2022 2232 2490 2525 2490 1669 1920 1711 3026 3228 4370 3944 3686 3948 4126 4127 3493 3446 3400
0 0 0 28 0 0 2 1 0 1 45 87 50 5 77 78 406 782 897 1080 1074 1289 1440 557 504 2525 2203 2552 3550 3159 3557 3047 4282 4143 4502 4960 4874 4892 4740 3680 3584 3805 3804 3998
121 132 174 66 50 10 0 23 65 52 57 208 234 62 105 429 500 800 1359 1580 1589 1487 1582 1333 1531 2133 1877 2071 2875 3703 3801 4348 4187 4327 4818 4968 4894 4879 4528 4812 4549 4026 3549 2676
103 78 3 112 127 222 183 21 63 59 37 124 96 143 193 636 557 674 1002 1274 1596 2270 2171 2152 1909 1764 1681 2090 2885 3931 3614 4521 4528 4482 4863 4781 4890 4393 3868 3527 2864 2283 2009 1985
72 121 172 146 374 262 187 69 27 19 356 287 143 44 306 231 641 856 865 1060 1559 2354 2301 2073 1956 1741 2059 3081 3547 3698 3581 4208 4379 4579 4683 4122 3373 3024 2816 2261 2312 1800 1824 1333
156 137 274 333 233 183 326 0 1 5 331 109 335 600 543 398 554 1089 1107 1245 1392 1264 1901 1913 1676 1772 3491 3657 3860 4115 4250 4397 4675 4091 3410 3123 2921 2750 2553 2283 1887 1386 1189 866
330 341 30 241 229 303 360 76 9 21 343 359 605 780 918 1698 1343 392 19 1697 1631 1423 1630 2253 2157 2706 3541 3600 3806 4106 4403 4519 4097 3290 3029 2704 2346 1853 1656 1441 1166 1263 1160 726
89 346 5 44 584 497 246 475 602 857 783 764 637 873 1078 1321 1391 1197 1078 1635 1932 1975 2097 2422 3130 3717 3738 3925 4418 4555 4516 3989 3109 2263 1848 1747 1513 731 1043 1294 1211 909 751 546
0 9 180 380 389 40 9 67 215 486 326 380 285 482 1031 1086 1454 1310 1289 2064 2364 2800 2902 2662 3237 3969 3935 4507 4681 4605 3209 2353 1742 1573 1459 1448 1150 867 910 816 668 388 828 101
0 48 14 45 237 0 0 0 0 0 0 0 0 0 219 624 914 1466 1424 1558 2471 2797 3130 3015 3489 3729 4274 4696 4628 2776 2257 1728 1579 1340 1287 977 756 616 518 269 226 134 268 443
0 0 0 0 3 11 13 0 0 0 0 0 0 0 0 21 239 462 924 2080 2531 3174 3448 3354 3698 3929 4318 4402 2880 2057 1749 1518 1382 1233 825 584 235 317 0 0 0 0 0 0
0 0 0 0 0 0 0 0 0 0 0 0 0 0 0 0 12 108 384 929 1962 2838 3686 3614 4028 4053 4213 3983 2555 1867 1521 1496 1220 911 578 273 110 76 0 0 0 0 0 0
CIN
-111 -40 -98 -1 -22 -7 -0 -56 -130 -441 -12 -1 -14 -34 -65 -57 -11 -0 -27 -1 -41 -0 -10 -7 -1 -0 -30 -123 -10 -8 -6 -8 -4 -7 -2 -33 -27 -53 -56 -23 -29 -26 -6 -0
-275 -359 -154 -14 -5 -2 -0 -1 -2 -0 -23 -21 -50 -27 -47 -51 -21 -34 -46 -18 -57 -18 -84 -1 -14 -0 -0 -68 -2 -5 -8 -10 -2 -4 -17 -21 -25 -18 -59 -19 -28 -9 -1 -5
-18 -59 -105 -76 -10 -1 -1 -0 -0 -5 -24 -433 -0 -16 -23 -37 -28 -15 -38 -25 -40 -35 -44 -18 -4 -42 -0 -20 -3 -3 -4 -4 -1 -10 -10 -10 -10 -15 -14 -16 -13 -10 -3 -5
-175 -179 -122 -32 -0 -2 -0 -0 -0 -0 -0 -15 -63 -11 -140 -335 -7 -44 -19 -67 -47 -66 -29 -6 -1 -25 -61 -0 -28 -8 -5 -3 -1 -3 -16 -9 -6 -48 -42 -30 -11 -14 -3 -3
-206 -69 -7 -3 -0 -0 -0 -0 -0 -0 -1 -53 -87 -143 -0 -430 -235 -26 -55 -18 -40 -37 -83 -34 -32 -61 -2 -133 -76 -10 -12 -3 -5 -6 -4 -7 -9 -17 -29 -30 -19 -7 -10 -2
-35 -35 -8 -29 -1 -0 -0 -0 -0 -1 -3 -1 -147 -70 -0 -49 -278 -15 -63 -62 -39 -47 -49 -55 -30 -51 -6 -6 -10 -14 -19 -4 -5 -5 -9 -7 -1 -6 -3 -8 -7 -13 -40 -34
-69 -78 -48 -46 -0 -0 -0 -5 -21 -37 -1 -1 -118 -136 -197 -0 -332 -9 -56 -68 -75 -22 -28 -54 -33 -26 -4 -9 -8 -3 -23 -8 -3 -1 -2 -13 -12 -10 -4 -0 -15 -11 -25 -30
-6 -1 -4 -5 -0 -3 -0 -22 -90 -6 -2 -7 -98 -46 -4 -174 -234 -13 -38 -60 -80 -71 -54 -17 -9 -9 -15 -7 -31 -12 -23 -19 -4 -2 -2 -3 -3 -14 -25 -3 -12 -8 -19 -19
-0 -4 -0 -0 -0 -0 -0 -2 -0 -0 -2 -8 -38 -79 -44 -90 -0 -0 -8 -16 -60 -77 -71 -73 -18 -8 -23 -14 -29 -19 -35 -12 -9 -3 -3 -2 -3 -4 -7 -8 -18 -15 -13 -15
-0 -18 -36 -31 -25 -0 -0 -0 -6 -4 -6 -14 -48 -221 -523 -129 -1 -2 -5 -17 -44 -54 -61 -77 -48 -1 -1 -2 -10 -26 -47 -54 -19 -7 -4 -10 -3 -12 -21 -16 -2 -4 -6 -10
-2 -2 -40 -13 -0 -0 -0 -0 -13 -4 -7 -3 -20 -45 -101 -148 -3 -3 -5 -9 -23 -43 -54 -65 -62 -27 -11 -2 -0 -6 -16 -24 -16 -15 -17 -14 -19 -13 -14 -17 -11 -7 -7 -7
-0 -8 -1 -4 -3 -22 -13 -13 -4 -4 -20 -1 -68 -30 -12 -3 -6 -34 -4 -6 -9 -12 -22 -36 -45 -55 -49 -29 -8 -8 -4 -9 -19 -30 -10 -4 -6 -5 -4 -16 -6 -5 -9 -4
-0 -26 -0 -3 -6 -16 -0 -0 -0 -10 -20 -83 -171 -296 -205 -7 -1 -29 -18 -3 -13 -11 -1 -9 -21 -45 -60 -47 -13 -24 -11 -29 -58 -48 -30 -18 -9 -15 -22 -2 -12 -6 -8 -4
-41 -0 -0 -14 -18 -32 -27 -0 -13 -8 -40 -64 -46 -50 -46 -45 -6 -10 -21 -37 -6 -13 -6 -3 -10 -14 -37 -50 -15 -9 -21 -23 -31 -14 -7 -13 -9 -11 -19 -12 -6 -6 -2 -3
-0 -2 -1 -20 -0 -0 -0 -0 -54 -30 -22 -7 -100 -25 -130 -305 -199 -18 -31 -31 -12 -19 -1 -188 -15 -13 -53 -44 -26 -31 -30 -14 -28 -12 -17 -13 -11 -1 -13 -1 -15 -3 -2 -3
-0 -0 -0 -0 -0 -0 -87 -2 -1 -49 -44 -5 -22 -61 -185 -62 -24 -21 -25 -34 -34 -21 -13 -108 -242 -25 -41 -58 -10 -31 -10 -7 -13 -36 -1 -19 -8 -5 -6 -8 -1 -1 -0 -3
-4 -49 -102 -3 -4 -34 -0 -8 -6 -20 -0 -3 -18 -24 -230 -10 -27 -29 -28 -34 -40 -39 -15 -3 -5 -40 -24 -43 -55 -14 -19 -2 -41 -25 -9 -9 -9 -1 -0 -1 -2 -2 -0 -29
-3 -355 -215 -122 -124 -2 -17 -27 -40 -43 -28 -31 -13 -2 -6 -2 -13 -26 -38 -38 -39 -36 -6 -3 -12 -10 -20 -14 -45 -30 -26 -23 -24 -16 -4 -2 -1 -0 -13 -13 -27 -47 -50 -21
-2 -2 -12 -6 -4 -0 -24 -82 -287 -206 -94 -186 -32 -19 -8 -15 -5 -22 -31 -46 -41 -45 -17 -7 -9 -8 -4 -27 -67 -79 -42 -19 -15 -1 -2 -15 -64 -60 -39 -63 -36 -61 -26 -49
-1 -4 -1 -0 -1 -15 -123 -0 -146 -108 -142 -694 -339 -20 -22 -18 -1 -18 -23 -36 -47 -56 -38 -12 -9 -5 -54 -96 -81 -63 -28 -11 -1 -23 -79 -81 -68 -49 -43 -42 -43 -60 -56 -91
-139 -259 -164 -69 -0 -4 -44 -7 -69 -156 -12 -48 -35 -51 -48 -25 -23 -161 -160 -41 -47 -61 -54 -37 -3 -8 -55 -98 -106 -57 -19 -4 -26 -79 -88 -92 -97 -127 -111 -103 -91 -49 -57 -108
-0 -77 -33 -126 -8 -14 -103 -8 -12 -82 -66 -74 -91 -107 -73 -65 -54 -52 -30 -30 -41 -57 -46 -32 -8 -40 -62 -72 -26 -12 -7 -26 -97 -177 -210 -195 -191 -287 -172 -90 -67 -74 -82 -106
-0 -16 -19 -33 -31 -200 -18 -222 -119 -82 -160 -155 -152 -159 -128 -113 -135 -95 -69 -14 -18 -23 -42 -38 -12 -31 -48 -15 -8 -8 -105 -188 -247 -257 -265 -226 -239 -233 -163 -140 -125 -155 -61 -252
-0 -60 -72 -83 -31 -0 -0 -0 -0 -0 -0 -0 -0 -155 -233 -200 -210 -164 -72 -24 -1 -1 -9 -29 -28 -28 -6 -8 -13 -204 -236 -278 -261 -295 -278 -301 -302 -265 -227 -260 -235 -226 -114 -94
-0 -0 -0 -0 -29 -55 -86 -0 -0 -0 -0 -0 -0 -0 -0 -224 -318 -316 -228 -85 -5 -3 -3 -4 -18 -32 -17 -11 -173 -283 -309 -302 -294 -299 -358 -372 -420 -319 -0 -0 -0 -0 -0 -0
-0 -0 -0 -0 -0 -0 -0 -4 -0 -0 -0 -0 -0 -0 -0 -0 -239 -375 -334 -248 -115 -64 -9 -4 -8 -17 -19 -42 -193 -267 -318 -300 -325 -344 -375 -414 -433 -401 -0 -0 -0 -0 -0 -0
Wind_Speed
23 5 11 12 14 10 16 24 33 32 12 14 9 15 15 12 19 17 15 15 15 19 17 16 15 15 14 13 10 11 6 9 7 5 3 2 5 4 5 5 9 7 4 3
15 9 18 21 19 16 7 5 10 9 9 5 8 17 13 10 14 15 17 19 15 16 15 15 16 14 13 13 12 9 11 10 6 4 3 1 4 3 5 4 6 5 4 5
5 21 22 23 21 10 2 2 6 10 16 28 16 9 11 10 7 13 21 16 17 17 18 20 18 17 16 12 13 10 8 10 6 4 4 3 2 1 3 6 5 6 6 5
5 20 25 24 8 7 7 2 5 3 12 4 13 7 14 18 9 12 19 21 20 20 18 20 18 18 16 15 11 12 9 9 6 4 2 6 3 2 3 2 3 5 5 5
15 28 16 3 11 5 6 0 9 6 5 11 7 9 10 17 13 14 15 19 24 23 22 19 20 19 18 19 15 13 12 8 8 6 3 4 4 2 3 6 7 5 4 4
28 21 22 10 13 9 5 8 7 13 9 8 18 13 5 11 22 17 18 17 17 24 21 23 21 20 16 16 14 14 14 11 8 9 6 5 2 3 0 4 1 5 5 4
23 25 25 21 15 13 7 3 5 3 4 1 27 15 13 29 24 20 19 20 18 21 22 19 21 20 16 17 14 16 17 13 11 9 9 8 6 4 3 2 4 0 6 5
19 6 8 14 10 10 12 12 8 14 9 9 14 7 11 28 32 20 20 20 20 18 17 19 22 21 19 16 23 16 17 15 14 11 9 8 8 5 5 5 6 4 3 4
8 11 20 23 10 11 15 11 14 11 9 5 11 9 9 16 21 20 19 19 18 17 18 17 15 23 21 18 13 15 14 13 12 13 10 9 7 8 7 7 7 4 4 4
10 9 17 20 10 12 15 15 11 5 3 3 19 9 7 26 12 19 18 17 16 15 17 16 15 13 12 17 16 16 16 15 13 14 12 10 10 10 9 7 4 4 3 4
24 19 7 23 10 11 7 9 11 3 2 4 5 1 18 23 9 17 16 16 16 15 16 15 14 13 12 12 14 18 17 16 13 12 12 12 11 11 10 8 6 5 4 4
14 13 11 15 11 9 10 13 8 4 7 1 9 7 7 6 11 6 17 16 18 14 15 16 15 15 13 11 12 13 14 16 16 12 9 10 11 8 10 10 9 8 7 6
10 11 12 15 1 11 10 10 8 12 5 16 7 7 19 8 11 8 9 16 17 14 14 15 15 16 14 12 10 12 10 11 12 12 14 13 12 11 9 7 9 7 6 5
6 12 14 4 6 6 16 14 17 18 6 8 5 3 3 11 6 6 9 12 19 15 15 16 17 14 13 11 10 8 12 13 13 13 13 12 10 9 10 9 6 6 4 5
8 13 13 6 13 10 19 18 13 18 8 8 12 3 14 20 32 11 9 10 14 15 17 19 9 18 16 12 11 9 10 9 12 7 8 7 6 3 6 2 6 5 4 5
11 13 16 15 16 9 20 15 3 19 21 5 12 10 18 21 17 10 10 11 10 13 12 21 17 16 13 13 8 10 6 8 6 8 4 8 6 6 5 3 3 2 1 3
9 10 15 14 13 7 6 7 5 17 9 16 15 11 28 21 13 12 10 10 11 10 12 15 12 14 12 14 11 10 8 4 11 7 5 8 7 6 3 5 5 6 8 8
9 5 8 13 21 15 10 10 12 19 6 5 5 10 3 14 14 12 12 11 11 11 9 10 10 10 12 13 14 10 9 7 9 8 8 8 8 8 8 7 7 8 6 6
15 13 12 10 17 16 12 3 7 7 18 18 8 5 8 2 17 12 11 10 10 10 12 13 12 13 8 12 14 13 11 10 10 10 10 10 9 9 7 5 6 6 6 6
19 16 13 14 16 15 5 13 8 15 3 13 25 9 9 10 4 12 12 9 10 12 12 12 13 12 16 13 12 11 12 11 10 11 10 9 8 7 6 7 7 6 5 5
3 6 10 15 14 8 10 24 19 7 4 13 4 5 4 10 9 7 5 8 11 12 15 13 11 13 16 13 13 12 12 11 12 12 10 9 9 9 8 8 6 4 5 7
15 6 6 7 23 5 16 3 3 7 6 9 9 9 5 6 8 3 5 12 12 13 15 13 11 15 15 14 12 13 12 12 12 11 11 10 9 8 7 7 6 6 6 5
9 10 6 7 3 7 13 13 15 14 11 10 8 6 7 11 8 5 8 11 11 11 13 14 13 14 13 14 13 14 13 13 12 12 12 10 10 9 8 7 6 5 5 6
13 7 3 5 7 12 11 9 8 9 7 7 6 8 10 10 12 14 9 9 9 10 12 12 15 14 13 12 13 15 14 13 12 12 12 11 10 9 8 6 7 3 0 3
11 8 6 7 10 6 7 6 6 5 5 6 6 8 9 10 11 12 13 14 3 9 11 11 14 14 14 13 15 15 15 13 12 12 12 11 9 8 8 7 4 7 6 3
10 12 9 8 9 9 7 10 9 3 5 4 4 5 7 6 7 9 9 10 12 8 13 11 14 16 15 15 15 14 14 14 14 12 10 9 8 9 8 8 8 14 7 13
Wind_Direction
22 350 180 236 233 263 215 190 178 214 165 184 65 142 148 165 144 158 165 180 188 177 171 185 144 172 133 143 178 136 162 120 130 151 217 147 121 189 197 147 156 174 176 139
31 320 275 270 282 223 208 206 173 123 149 35 331 127 139 166 156 163 164 170 180 178 182 169 158 153 164 175 169 154 135 136 158 192 200 156 109 107 170 158 150 144 167 174
61 228 267 295 278 216 96 354 174 183 120 111 243 134 138 160 179 159 159 180 179 189 194 162 165 179 167 196 165 171 152 149 186 170 121 87 21 140 167 172 153 171 180 177
304 267 266 270 310 330 177 20 290 164 173 141 183 36 17 332 244 186 165 180 180 194 193 169 173 194 176 172 186 159 165 157 171 192 172 161 145 87 241 124 143 159 183 151
262 283 326 306 277 330 48 128 289 257 237 139 225 89 291 330 294 192 203 188 176 179 188 184 181 191 184 170 178 164 161 183 168 185 192 176 230 234 240 139 161 142 159 200
239 286 266 251 282 250 328 253 272 324 278 229 112 99 248 236 234 206 192 184 193 172 187 176 187 184 171 187 179 171 165 178 175 171 189 252 249 240 152 59 181 183 183 186
247 246 244 227 250 237 224 289 339 325 233 321 127 101 269 224 233 199 186 179 190 177 175 184 176 182 191 180 195 175 166 175 179 185 176 205 225 239 293 251 247 227 181 189
281 221 228 189 228 293 284 167 180 268 216 119 120 145 185 203 214 183 176 179 180 181 180 185 179 175 185 189 190 177 162 169 174 182 197 191 208 220 224 228 259 291 38 144
304 319 310 301 234 230 269 241 300 300 4 45 96 5 10 340 141 153 165 172 173 175 169 185 192 167 181 187 189 151 155 161 175 187 192 203 205 227 228 224 211 243 242 264
226 236 284 265 229 260 280 301 300 335 35 353 96 90 150 296 150 148 156 166 167 171 167 173 182 188 177 172 172 160 170 178 189 190 191 206 211 211 236 254 256 259 339 356
225 244 291 276 209 248 206 234 244 233 171 285 75 117 191 205 132 153 157 163 161 170 169 165 174 170 170 189 177 169 174 176 189 202 215 199 207 210 212 232 226 239 249 250
228 256 196 227 209 191 242 272 293 358 279 63 73 0 42 122 158 140 157 156 156 175 174 165 166 158 166 181 178 188 183 179 188 194 199 214 204 209 209 206 227 205 213 218
247 230 267 272 235 224 243 255 252 182 143 94 112 283 267 287 126 156 126 154 146 168 176 163 158 156 156 171 169 178 179 181 193 195 197 216 205 199 226 231 198 226 201 194
293 237 239 260 88 351 307 321 327 332 75 104 98 224 23 347 112 151 146 151 154 178 177 161 156 147 148 163 157 171 179 183 189 201 201 189 206 196 201 209 216 178 200 169
253 264 261 268 150 340 293 281 316 309 300 169 169 194 115 106 258 156 136 143 166 180 193 97 236 149 158 155 160 165 182 183 176 207 169 152 167 171 163 257 137 128 158 197
236 261 278 288 125 277 267 241 138 298 279 128 154 110 139 196 217 149 143 155 173 186 219 135 219 141 145 150 171 160 195 171 138 143 128 116 116 100 95 74 78 96 283 68
293 359 341 278 290 256 223 282 220 222 246 54 68 79 154 182 156 150 151 161 164 185 219 153 147 139 159 169 172 159 157 170 121 125 116 117 112 109 106 95 85 94 80 76
273 84 22 315 309 277 290 333 331 332 29 11 54 116 113 143 146 150 160 161 162 169 196 162 170 162 178 174 157 136 152 126 122 127 119 117 106 102 97 97 91 84 81 79
263 258 231 248 246 296 339 325 33 8 354 5 331 354 106 262 126 130 146 157 161 168 176 184 169 196 167 109 136 143 154 124 130 129 112 115 110 106 116 114 126 120 102 98
246 285 283 261 265 277 254 112 41 280 48 358 304 31 2 301 195 126 137 159 160 171 184 175 176 137 103 109 116 115 121 134 136 126 114 118 131 148 128 102 98 102 122 131
39 23 307 310 266 293 45 167 149 99 29 186 31 12 32 45 52 150 173 163 155 169 172 175 169 133 121 125 125 129 136 145 122 117 122 116 109 104 108 104 119 125 94 88
275 194 150 256 267 195 20 40 27 104 133 79 71 2 6 67 49 2 189 155 163 173 157 155 132 119 125 133 141 139 139 117 115 118 121 118 126 125 119 119 101 103 116 126
286 317 349 348 100 94 52 48 31 68 66 43 57 40 9 50 28 8 288 156 166 166 145 153 131 126 134 141 144 133 123 122 127 132 128 133 111 111 121 125 135 152 179 168
290 39 321 355 75 95 90 77 53 56 69 70 39 29 30 32 32 4 329 158 170 165 151 149 137 143 144 141 129 126 130 137 142 138 132 121 121 129 141 165 191 156 182 195
294 341 333 310 284 268 165 163 126 89 65 59 37 24 34 13 27 8 358 347 238 166 153 153 149 151 145 142 131 138 144 151 146 140 138 143 139 150 91 63 47 90 52 17
284 286 279 284 303 323 341 57 101 87 6 32 9 8 14 6 13 4 351 343 336 329 157 162 154 151 150 140 139 146 156 157 151 148 152 149 161 145 134 103 83 49 56 70